Regional Weather Roundup
Issued by NWS Green Bay, WI

Home | Current Version | Previous Version | Graphics & Text | Print | Product List | Glossary Off
Versions: 1 2 3 4 5 6 7 8 9 10 11 12 13 14 15 16 17 18 19 20 21 22 23 24 25 26 27 28 29 30 31 32 33 34 35 36 37 38 39 40 41 42 43 44 45 46 47 48 49 50

000
ASUS43 KGRB 170111
RWRGRB

NORTH-CENTRAL AND NORTHEAST WISCONSIN REGIONAL WEATHER ROUNDUP
NATIONAL WEATHER SERVICE GREEN BAY WI
800 PM CDT WED AUG 16 2017

WIZ005-009-010>012-018-019-170200-
NORTH CENTRAL WISCONSIN

CITY           SKY/WX    TMP DP  RH WIND       PRES   REMARKS
IRONWOOD       PTCLDY    70  60  70 E5        29.88F
MANITOWISH WTR PTCLDY    68  61  78 E5        29.90R
ARBOR VITAE    CLOUDY    72  62  70 SE9       29.90S
EAGLE RIVER    CLOUDY    67  55  65 SE8       29.92S
LAND O LAKES   PTCLDY    67  57  70 SE5       29.94R
RHINELANDER    PTCLDY    68  60  75 E9        29.92S
PHILLIPS       CLOUDY    69  63  79 E6        29.87S
ANTIGO         CLOUDY    66  60  82 SE7       29.93R
TOMAHAWK         N/A     68  59  73 E6        29.91R
MERRILL        MOCLDY    70  63  78 E7        29.89S
$$

WIZ013-073-170200-
NORTHEAST WISCONSIN

CITY           SKY/WX    TMP DP  RH WIND       PRES   REMARKS
IRON MOUNTAIN  PTCLDY    68  55  63 SE6       29.92F
MARINETTE      MOCLDY    69  62  78 E9        29.92F
OCONTO         MOCLDY    69  62  79 E5        29.91S
$$

WIZ017-030-035>037-045-170200-
CENTRAL WISCONSIN

CITY           SKY/WX    TMP DP  RH WIND       PRES   REMARKS
MEDFORD        CLOUDY    69  62  80 E10G16    29.86S
WAUSAU         CLOUDY    70  63  78 E13       29.86F
MOSINEE        MOCLDY    70  64  83 E13       29.88F
MARSHFIELD     CLOUDY    72  63  73 E13       29.83F
WISC RAPIDS    CLOUDY    74  65  73 E14G22    29.85F
STEVENS POINT  CLOUDY    69  63  80 E10G20    29.88R
WAUPACA        CLOUDY    74  64  71 E6        29.88F
SHAWANO        CLOUDY    70  63  78 E7        29.91R
CLINTONVILLE   CLOUDY    70  61  73 E7        29.90R
WAUTOMA        LGT RAIN  71  66  84 E7        29.87R
$$

WIZ038-039-048-051-170200-
FOX VALLEY

CITY           SKY/WX    TMP DP  RH WIND       PRES   REMARKS
NWS GREEN BAY  CLOUDY    69  64  84 E7        29.90S
APPLETON       MOCLDY    72  57  60 E9G16     29.89S
OSHKOSH        CLOUDY    71  62  73 E12       29.88S
FOND DU LAC    LGT RAIN  70  61  73 SE8       29.88S
$$

WIZ022-050-052-170200-
EAST CENTRAL WISCONSIN

CITY           SKY/WX    TMP DP  RH WIND       PRES   REMARKS
EPHRAIM        FAIR      65  63  93 E3        29.93S
WASHINGTON ISL FAIR      65  62  91 CALM      29.93F
STURGEON BAY   CLOUDY    66  63  90 E6        29.93
MANITOWOC      CLOUDY    68  64  87 NE3       29.91F
SHEBOYGAN      CLOUDY    68  66  93 E7        29.90F
$$

LMZ563-521-522-541>543-170200-
LAKESHORE

STATION/POSITION TIME  TEMP    WIND        PRES    VSBY  WAVE
                       AIR SEA DIR/SP/G                  HT/PER
                 (UTC) (F)     (DEG/KT/KT) (MB)    (MI)  (FT/S)
SHEBOYGAN LKSHOR 0100   70      50/  8/  8 1012.1F
KEWAUNEE LKSHORE 0048   67      60/  2/  5 1012.4F
NORTHPORT PIER   0040   68     100/  4/  7 1013.5S
N MID LAKE BUOY  0050   69 68   90/  6/  8 1014.0F         1
S GREEN BAY BUOY 0100   69 72  110/ 10/ 12 1012.7
SISTER BAY LKSHO 0018   69     120/  3/  5   N/A
MENOMINEE LKSHOR 0048   70      80/ 10/ 12 1012.9F
$$




USA.gov is the U.S. government's official web portal to all federal, state and local government web resources and services.